Regional Weather Roundup
Issued by NWS

Home | Current Version | Previous Version | Graphics & Text | Print | Product List | Glossary On
Versions: 1 2 3 4 5 6 7 8 9 10 11 12 13 14 15 16 17 18 19 20 21 22 23 24 25 26 27 28 29 30 31 32 33 34 35 36 37 38 39 40 41 42 43 44 45 46 47 48 49 50
000
ASUS43 KOAX 021310
RWRNE

WEATHER ROUNDUP FOR NEBRASKA
NATIONAL WEATHER SERVICE OMAHA NE
800 AM CDT THU JUL 02 2015

NOTES: SATELLITE DATA IS BEING USED TO AUGMENT CLOUD COVER ABOVE
       12000 FEET.
       "FAIR" INDICATES FEW OR NO CLOUDS BELOW 12,000 FEET WITH NO
       SIGNIFICANT WEATHER AND/OR OBSTRUCTIONS TO VISIBILITY.

  * THESE STATIONS DO NOT REPORT WEATHER SUCH AS RAIN...SNOW OR FOG.

NEZ001>004-019>022-054>056-021400-
NEBRASKA PANHANDLE

CITY           SKY/WX    TMP DP  RH WIND       PRES   REMARKS
SCOTTSBLUFF    PTSUNNY   62  62 100 NW12      30.14R
ALLIANCE       SUNNY     60  58  92 W10       30.09S
CHADRON        SUNNY     63  59  87 W8        30.09R
SIDNEY         PTSUNNY   60  58  92 SW7       30.13R
$$

NEZ057>060-069>072-079>082-021400-
SOUTHWEST NEBRASKA

CITY           SKY/WX    TMP DP  RH WIND       PRES   REMARKS
NORTH PLATTE   LGT RAIN  64  61  90 S8        29.98F
IMPERIAL       CLOUDY    63  58  83 N5        30.08R
MCCOOK         CLOUDY    66  59  78 NE7       30.03S
$$

NEZ005>010-023>029-035>040-094-021400-
NORTH CENTRAL NEBRASKA

CITY           SKY/WX    TMP DP  RH WIND       PRES   REMARKS
VALENTINE      PTSUNNY   67  63  87 W13       29.98S
BROKEN BOW     LGT RAIN  67  59  75 MISG      29.94R
$$

NEZ041-046>049-061>064-073>077-083>087-021400-
SOUTH CENTRAL NEBRASKA

CITY           SKY/WX    TMP DP  RH WIND       PRES   REMARKS
GRAND ISLAND   CLOUDY    69  68  96 SW10      29.98R FOG
HASTINGS       TSTM      69  69 100 SW9       29.98R FOG
KEARNEY *      CLOUDY    70  66  88 SW8       29.99F
$$

NEZ011>018-030>034-042>045-021400-
NORTHEAST NEBRASKA

CITY           SKY/WX    TMP DP  RH WIND       PRES   REMARKS
NORFOLK        LGT RAIN  61  60  97 E9        29.96F FOG
COLUMBUS *     CLOUDY    64  55  72 E7        29.97R
TEKAMAH        CLOUDY    64  58  80 NE5       29.97S
$$

NEZ050>053-065>068-078-088>093-021400-
SOUTHEAST NEBRASKA

CITY           SKY/WX    TMP DP  RH WIND       PRES   REMARKS
LINCOLN        CLOUDY    67  63  87 E6        29.95R FOG
OMAHA EPPLEY   CLOUDY    64  59  83 E5        29.95F
FALLS CITY     CLOUDY    70  67  90 NE7       29.92S FOG
$$

NEZ044-045-051>053-067-021400-
OMAHA AREA

CITY           SKY/WX    TMP DP  RH WIND       PRES   REMARKS
OMAHA EPPLEY   CLOUDY    64  59  83 E5        29.95F
OFFUTT AFB       N/A     64  61  88 E8        29.94F
$$


USA.gov is the U.S. government's official web portal to all federal, state and local government web resources and services.